Regional Weather Roundup
Issued by NWS State College, PA

Home | Current Version | Previous Version | Text Only | Print | Product List | Glossary On
Versions: 1 2 3 4 5 6 7 8 9 10 11 12 13 14 15 16 17 18 19 20 21 22 23 24 25 26 27 28 29 30 31 32 33 34 35 36 37 38 39 40 41 42 43 44 45 46 47 48 49 50
000
ASUS41 KCTP 281910
RWRCTP

REGIONAL WEATHER ROUNDUP
NATIONAL WEATHER SERVICE STATE COLLEGE PA
300 PM EDT WED JUN 28 2017

Note: "fair" indicates few or no clouds below 12,000 feet with no
significant weather and/or obstructions to visibility.

* = STATION THAT DOES NOT REPORT PRECIPITATION /E.G. RAIN...SNOW...ETC/
    THUNDER OR FOG.

PAZ002>004-007>009-013>016-020>023-029>032-282000-
WESTERN PENNSYLVANIA

CITY           SKY/WX    TMP DP  RH WIND       PRES   REMARKS
ERIE           SUNNY     71  50  47 W12       30.12F
MEADVILLE      CLOUDY    71  50  47 SW8G17    30.15F
FRANKLIN*      CLOUDY    72  48  43 SW9       30.16F
NEW CASTLE     FAIR      74  50  42 SW6       30.16S
BEAVER COUNTY  SUNNY     77  50  38 S9        30.16
BUTLER*        CLOUDY    73  50  43 SW10      30.16F
PITTSBURGH INT CLOUDY    74  45  35 S8        30.16F
PITTSBURGH     SUNNY     74  45  35 MISG      30.16F
INDIANA*       SUNNY     73  50  43 W6G12     30.19F
LATROBE        PTSUNNY   72  46  40 SW9       30.18F
WASHINGTON CO* MOSUNNY   73  48  40 S10G17    30.19S
$$

PAZ004>006-010>012-017>019-024>028-033>037-041-042-045-046-049>053-282000-
CENTRAL PENNSYLVANIA

CITY           SKY/WX    TMP DP  RH WIND       PRES   REMARKS
BRADFORD       PTSUNNY   70  48  45 SW9       30.16F
DUBOIS         MOSUNNY   71  49  45 SW13G21   30.17S
CLEARFIELD     PTSUNNY   73  47  39 VRB6      30.17F
JOHNSTOWN      SUNNY     69  44  40 SW8G16    30.19F
ALTOONA        MOSUNNY   73  47  39 W7        30.19S
STATE COLLEGE  PTSUNNY   73  50  43 W9        30.16F
WILLIAMSPORT   MOSUNNY   76  49  38 SW9       30.10F
SELINSGROVE    PTSUNNY   78  50  37 CALM      30.13F
FT INDIANTOWN  SUNNY     77  47  34 W12G18    30.13F
CAPITAL CITY   MOSUNNY   79  44  28 VRB5      30.14S
HARRISBURG     MOSUNNY   78  48  34 VRB3      30.14S
YORK           SUNNY     76  48  37 W6        30.16S
$$

PAZ038>040-043-044-047-048-054-055-060>062-067>071-282000-
EASTERN PENNSYLVANIA

CITY           SKY/WX    TMP DP  RH WIND       PRES   REMARKS
SCRANTON       PTSUNNY   73  50  44 VRB5      30.13F
MOUNT POCONO   MOSUNNY   69  49  48 NW10      30.16F
ALLENTOWN      MOSUNNY   77  51  40 NW8       30.12F
QUAKERTOWN*    MOCLDY    75  50  41 NW7       30.15S
READING        MOSUNNY   77  50  38 NW5       30.13S
LANCASTER      MOSUNNY   78  51  38 W9        30.14F
COATESVILLE    CLEAR     75  48  38 VRB7      30.17S
POTTSTOWN      MOSUNNY   74  48  39 N6        30.16S
BLUE BELL      SUNNY     75  50  41 NW7       30.16R
DOYLESTOWN     MOSUNNY   76  50  40 NW8       30.13S
WILLOW GROVE   NOT AVBL
NORTH PHILA    MOSUNNY   80  52  37 NW10G17   30.14F
PHILADELPHIA   MOSUNNY   79  47  32 W10       30.14S
$$




USA.gov is the U.S. government's official web portal to all federal, state and local government web resources and services.